DLH773 VTBS-EDDM

Flight info

Callsign DLH773
Flight time 4h 36m
Altitude 34000
Route TARED1G TARED P646 BBN R460 LKN M890 JAL/N0511F360 R594 DPN A589 BUTOP M875 DI N644 LEMOD A909 BODBA/N0503F380 A909 RODAR N644 ADEKI DCT BADIR DCT LAGAS DCT FOQUS DCT SARPI UM10 GOKPA UL746 ODERO L746 LUGEB DCT MOPUG DCT SUNIS DCT AMADI Q113 NAPSA NAPSA4A
Aircraft A388/J-SADE2E3FGHIJ3J4J5M1RWXY/LB1D1

Departure

Time 2026-04-30 14:51
Airport Suvarnabhumi Airport (VTBS)

Arrival

Time 2026-04-30 19:27
Airport Munich Airport (EDDM)
Time Latitude Longitude Altitude Speed Heading
2026-04-30 13:43 13.68167 100.74663 21 ft 0 kts 14°
2026-04-30 14:28 13.68152 100.74659 22 ft 4 kts 11°
2026-04-30 14:28 13.68125 100.74656 22 ft 4 kts
2026-04-30 14:29 13.68083 100.74665 21 ft 4 kts 323°
2026-04-30 14:29 13.68069 100.74681 23 ft 1 kts 284°
2026-04-30 14:39 13.68070 100.74678 18 ft 1 kts 284°
2026-04-30 14:39 13.68075 100.74660 18 ft 4 kts 284°
2026-04-30 14:40 13.68102 100.74554 20 ft 11 kts 284°
2026-04-30 14:40 13.68124 100.74464 18 ft 14 kts 284°
2026-04-30 14:40 13.68151 100.74356 18 ft 17 kts 283°
2026-04-30 14:40 13.68181 100.74232 18 ft 19 kts 284°
2026-04-30 14:41 13.68207 100.74126 18 ft 9 kts 284°
2026-04-30 14:41 13.68221 100.74076 19 ft 6 kts 296°
2026-04-30 14:41 13.68253 100.74056 20 ft 6 kts
2026-04-30 14:41 13.68299 100.74065 18 ft 8 kts 15°
2026-04-30 14:42 13.68357 100.74081 21 ft 9 kts 15°
2026-04-30 14:42 13.68423 100.74100 22 ft 11 kts 14°
2026-04-30 14:42 13.68501 100.74120 19 ft 12 kts 14°
2026-04-30 14:42 13.68588 100.74142 22 ft 13 kts 14°
2026-04-30 14:43 13.68654 100.74159 19 ft 6 kts 12°
2026-04-30 14:43 13.68682 100.74152 21 ft 4 kts 313°
2026-04-30 14:43 13.68697 100.74123 20 ft 6 kts 291°
2026-04-30 14:43 13.68721 100.74090 21 ft 5 kts 341°
2026-04-30 14:44 13.68763 100.74087 20 ft 7 kts 10°
2026-04-30 14:44 13.68813 100.74100 22 ft 8 kts 15°
2026-04-30 14:44 13.68876 100.74117 23 ft 10 kts 14°
2026-04-30 14:44 13.68950 100.74137 21 ft 12 kts 14°
2026-04-30 14:45 13.69034 100.74159 20 ft 13 kts 14°
2026-04-30 14:45 13.69128 100.74184 18 ft 14 kts 14°
2026-04-30 14:45 13.69228 100.74209 18 ft 15 kts 14°
2026-04-30 14:45 13.69334 100.74237 18 ft 16 kts 14°
2026-04-30 14:46 13.69443 100.74266 18 ft 16 kts 14°
2026-04-30 14:46 13.69554 100.74296 18 ft 17 kts 14°
2026-04-30 14:46 13.69668 100.74326 18 ft 17 kts 14°
2026-04-30 14:46 13.69783 100.74356 18 ft 17 kts 14°
2026-04-30 14:47 13.69899 100.74386 18 ft 17 kts 14°
2026-04-30 14:47 13.70014 100.74416 19 ft 17 kts 14°
2026-04-30 14:47 13.70130 100.74447 21 ft 17 kts 14°
2026-04-30 14:47 13.70196 100.74464 19 ft 7 kts 14°
2026-04-30 14:48 13.70247 100.74477 21 ft 9 kts 14°
2026-04-30 14:48 13.70296 100.74485 21 ft 6 kts 345°
2026-04-30 14:48 13.70325 100.74457 23 ft 7 kts 292°
2026-04-30 14:48 13.70345 100.74402 23 ft 9 kts 282°
2026-04-30 14:49 13.70343 100.74345 23 ft 6 kts 259°
2026-04-30 14:49 13.70326 100.74310 22 ft 5 kts 211°
2026-04-30 14:49 13.70294 100.74298 21 ft 0 kts 194°
2026-04-30 14:50 13.69929 100.74205 18 ft 88 kts 194°
2026-04-30 14:50 13.69134 100.73998 18 ft 144 kts 194°
2026-04-30 14:51 13.66880 100.73388 649 ft 172 kts 192°
2026-04-30 14:51 13.65708 100.73070 1066 ft 175 kts 193°
2026-04-30 14:51 13.63256 100.72421 1534 ft 194 kts 192°
2026-04-30 14:52 13.61899 100.72089 1701 ft 204 kts 191°
2026-04-30 14:52 13.59068 100.71403 2152 ft 213 kts 192°
2026-04-30 14:52 13.57596 100.71028 2293 ft 226 kts 192°
2026-04-30 14:53 13.54456 100.69761 2776 ft 260 kts 222°
2026-04-30 14:53 13.53413 100.68231 3306 ft 269 kts 248°
2026-04-30 14:54 13.53383 100.64350 4367 ft 283 kts 283°
2026-04-30 14:54 13.54716 100.60588 5755 ft 281 kts 290°
2026-04-30 14:55 13.57043 100.57317 6734 ft 292 kts 324°
2026-04-30 14:55 13.58868 100.56392 7172 ft 292 kts 348°
2026-04-30 14:55 13.62836 100.56578 8399 ft 288 kts 12°
2026-04-30 14:56 13.66880 100.57392 9216 ft 304 kts
2026-04-30 14:56 13.71129 100.57776 10223 ft 311 kts
2026-04-30 14:57 13.73334 100.57826 10460 ft 324 kts
2026-04-30 14:57 13.77992 100.57360 10774 ft 351 kts 341°
2026-04-30 14:58 13.82328 100.54942 11540 ft 361 kts 327°
2026-04-30 14:58 13.84464 100.53586 12040 ft 362 kts 328°
2026-04-30 14:58 13.88792 100.50877 13071 ft 364 kts 328°
2026-04-30 14:59 13.92974 100.47904 13931 ft 368 kts 310°
2026-04-30 15:00 13.96629 100.40970 15189 ft 372 kts 300°
2026-04-30 15:00 13.99283 100.36421 16059 ft 375 kts 299°
2026-04-30 15:01 14.01858 100.31722 16878 ft 379 kts 297°
2026-04-30 15:01 14.02703 100.30146 17145 ft 380 kts 297°
2026-04-30 15:01 14.05680 100.24551 18126 ft 383 kts 297°
2026-04-30 15:02 14.06965 100.22137 18458 ft 386 kts 297°
2026-04-30 15:02 14.08257 100.19708 18813 ft 387 kts 297°
2026-04-30 15:03 14.12167 100.12353 19791 ft 393 kts 297°
2026-04-30 15:03 14.14784 100.07428 20438 ft 396 kts 297°
2026-04-30 15:04 14.17442 100.02423 21058 ft 400 kts 297°
2026-04-30 15:04 14.21470 99.94832 21978 ft 405 kts 297°
2026-04-30 15:05 14.25548 99.87139 22884 ft 410 kts 297°
2026-04-30 15:06 14.28298 99.81947 23409 ft 415 kts 298°
2026-04-30 15:06 14.31079 99.76694 23904 ft 418 kts 298°
2026-04-30 15:07 14.33878 99.71402 24413 ft 421 kts 298°
2026-04-30 15:07 14.36690 99.66086 24891 ft 424 kts 298°
2026-04-30 15:08 14.39522 99.60728 25409 ft 426 kts 297°
2026-04-30 15:08 14.43800 99.52622 26152 ft 431 kts 297°
2026-04-30 15:09 14.46607 99.47136 26694 ft 434 kts 296°
2026-04-30 15:09 14.49379 99.41596 27299 ft 435 kts 296°
2026-04-30 15:10 14.52182 99.36027 27857 ft 439 kts 296°
2026-04-30 15:11 14.57866 99.24748 29112 ft 446 kts 296°
2026-04-30 15:11 14.60738 99.19041 29793 ft 450 kts 296°
2026-04-30 15:12 14.65091 99.10387 30751 ft 454 kts 296°
2026-04-30 15:13 14.67990 99.04620 31532 ft 453 kts 296°
2026-04-30 15:14 14.73861 98.92922 32645 ft 462 kts 296°
2026-04-30 15:14 14.77806 98.85051 33259 ft 461 kts 295°
2026-04-30 15:16 14.85177 98.70325 33894 ft 463 kts 295°
2026-04-30 15:17 14.91164 98.58340 33962 ft 473 kts 295°
2026-04-30 15:19 15.20401 97.99097 33922 ft 471 kts 294°
2026-04-30 17:39 41.56198 44.36708 38142 ft 454 kts 274°
2026-04-30 17:42 41.57268 43.94690 38129 ft 452 kts 269°
2026-04-30 17:43 41.57276 43.73771 38141 ft 450 kts 269°
2026-04-30 17:44 41.57237 43.48731 38154 ft 449 kts 269°
2026-04-30 17:47 41.57077 43.11278 38164 ft 448 kts 269°
2026-04-30 17:48 41.56865 42.82146 38172 ft 448 kts 269°
2026-04-30 17:50 41.56537 42.49020 38135 ft 444 kts 269°
2026-04-30 17:52 41.56109 42.15472 38153 ft 444 kts 269°
2026-04-30 17:54 41.55432 41.73293 38192 ft 446 kts 269°
2026-04-30 17:56 41.57301 41.02623 38164 ft 440 kts 274°
2026-04-30 17:58 41.62231 40.05588 38196 ft 435 kts 274°
2026-04-30 18:00 41.67508 38.76492 38186 ft 432 kts 273°
2026-04-30 18:01 41.70057 37.96126 38187 ft 432 kts 273°
2026-04-30 18:02 41.72359 37.00182 38181 ft 430 kts 272°
2026-04-30 18:04 41.73859 36.04265 38174 ft 429 kts 272°
2026-04-30 18:06 41.74619 34.76521 38163 ft 429 kts 271°
2026-04-30 18:07 41.85090 34.14584 38175 ft 428 kts 286°
2026-04-30 18:08 41.95567 33.68756 38159 ft 428 kts 285°
2026-04-30 18:10 42.19722 32.45653 38150 ft 424 kts 284°
2026-04-30 18:11 42.39844 31.42064 38166 ft 425 kts 283°
2026-04-30 18:13 42.47112 31.03290 38175 ft 425 kts 283°
2026-04-30 18:14 42.54241 30.64405 38187 ft 425 kts 283°
2026-04-30 18:15 42.65731 30.19319 38191 ft 435 kts 308°
2026-04-30 18:16 42.81851 29.94660 38199 ft 436 kts 307°
2026-04-30 18:17 42.88536 29.84364 38205 ft 436 kts 307°
2026-04-30 18:18 43.00579 29.65724 38206 ft 436 kts 307°
2026-04-30 18:18 43.08590 29.53258 38212 ft 436 kts 307°
2026-04-30 18:19 43.16590 29.40755 38214 ft 436 kts 307°
2026-04-30 18:19 43.24570 29.28229 38217 ft 436 kts 307°
2026-04-30 18:20 43.32551 29.15647 38230 ft 437 kts 307°
2026-04-30 18:20 43.40526 29.03020 38229 ft 437 kts 307°
2026-04-30 18:21 43.48449 28.90419 38224 ft 438 kts 306°
2026-04-30 18:21 43.56419 28.77691 38223 ft 438 kts 306°
2026-04-30 18:22 43.64376 28.64925 38225 ft 439 kts 306°
2026-04-30 18:22 43.75390 28.44924 38209 ft 432 kts 295°
2026-04-30 18:23 43.80719 28.30084 38211 ft 432 kts 294°
2026-04-30 18:23 43.86070 28.15122 38215 ft 432 kts 294°
2026-04-30 18:24 43.94030 27.92657 38197 ft 433 kts 293°
2026-04-30 18:25 43.99297 27.77675 38222 ft 434 kts 293°
2026-04-30 18:25 44.07221 27.54978 38227 ft 435 kts 293°
2026-04-30 18:26 44.15107 27.32200 38218 ft 436 kts 293°
2026-04-30 18:27 44.22939 27.09388 38235 ft 435 kts 293°
2026-04-30 18:28 44.30698 26.86594 38234 ft 436 kts 292°
2026-04-30 18:28 44.38487 26.63514 38258 ft 439 kts 292°
2026-04-30 18:29 44.48846 26.32512 38247 ft 439 kts 292°
2026-04-30 18:30 44.59142 26.01331 38263 ft 441 kts 292°
2026-04-30 18:31 44.66801 25.77897 38282 ft 443 kts 292°
2026-04-30 18:32 44.74464 25.54240 38249 ft 443 kts 292°
2026-04-30 18:33 44.82072 25.30538 38267 ft 443 kts 292°
2026-04-30 18:33 44.89619 25.06812 38258 ft 442 kts 292°
2026-04-30 18:34 44.97121 24.83007 38266 ft 442 kts 291°
2026-04-30 18:35 45.02117 24.67031 38251 ft 445 kts 291°
2026-04-30 18:35 45.07079 24.51067 38269 ft 447 kts 291°
2026-04-30 18:36 45.14586 24.26726 38274 ft 451 kts 291°
2026-04-30 18:37 45.22083 24.02182 38276 ft 453 kts 292°
2026-04-30 18:37 45.27055 23.85770 38264 ft 452 kts 292°
2026-04-30 18:38 45.31997 23.69356 38257 ft 452 kts 292°
2026-04-30 18:38 45.36910 23.52929 38246 ft 451 kts 292°
2026-04-30 18:39 45.41810 23.36435 38260 ft 452 kts 291°
2026-04-30 18:39 45.46661 23.20004 38257 ft 452 kts 291°
2026-04-30 18:40 45.51523 23.03423 38249 ft 454 kts 291°
2026-04-30 18:40 45.56373 22.86771 38253 ft 455 kts 291°
2026-04-30 18:41 45.61206 22.70069 38240 ft 456 kts 291°
2026-04-30 18:41 45.66026 22.53295 38245 ft 456 kts 291°
2026-04-30 18:42 45.70835 22.36443 38237 ft 458 kts 291°
2026-04-30 18:42 45.78019 22.11053 38229 ft 459 kts 291°
2026-04-30 18:45 46.04031 21.16830 38284 ft 465 kts 292°
2026-04-30 18:46 46.08718 20.99463 38284 ft 466 kts 292°
2026-04-30 18:46 46.13397 20.82038 38289 ft 466 kts 292°
2026-04-30 18:47 46.17880 20.64478 38303 ft 466 kts 290°
2026-04-30 18:47 46.22261 20.46853 38312 ft 466 kts 291°
2026-04-30 18:48 46.26585 20.29193 38325 ft 466 kts 291°
2026-04-30 18:48 46.30850 20.11584 38326 ft 466 kts 291°
2026-04-30 18:49 46.35109 19.93864 38345 ft 466 kts 290°
2026-04-30 18:49 46.39340 19.76124 38348 ft 466 kts 290°
2026-04-30 18:50 46.43548 19.58330 38348 ft 466 kts 290°
2026-04-30 18:50 46.47728 19.40514 38362 ft 467 kts 290°
2026-04-30 18:51 46.51884 19.22649 38378 ft 467 kts 291°
2026-04-30 18:51 46.56012 19.04766 38370 ft 466 kts 290°
2026-04-30 18:52 46.60105 18.86882 38387 ft 465 kts 291°
2026-04-30 18:52 46.64158 18.69028 38385 ft 464 kts 290°
2026-04-30 18:53 46.68177 18.51169 38395 ft 462 kts 290°
2026-04-30 18:53 46.72146 18.33386 38386 ft 461 kts 290°
2026-04-30 18:54 46.76082 18.15604 38363 ft 460 kts 290°
2026-04-30 18:54 46.79990 17.97806 38362 ft 461 kts 289°
2026-04-30 18:55 46.83840 17.80105 38366 ft 461 kts 289°
2026-04-30 18:55 46.89647 17.53126 38389 ft 465 kts 289°
2026-04-30 18:56 46.95431 17.25896 38424 ft 469 kts 289°
2026-04-30 18:57 47.01174 16.98495 38392 ft 469 kts 288°
2026-04-30 18:57 47.04961 16.80224 38403 ft 471 kts 288°
2026-04-30 18:58 47.10618 16.52615 38387 ft 473 kts 288°
2026-04-30 18:59 47.17045 16.25205 38410 ft 473 kts 295°
2026-04-30 19:00 47.26637 15.92638 38406 ft 473 kts 295°
2026-04-30 19:01 47.37024 15.56740 38405 ft 478 kts 295°
2026-04-30 19:02 47.44817 15.29450 38424 ft 483 kts 295°
2026-04-30 19:03 47.55136 14.92836 38429 ft 484 kts 296°
2026-04-30 19:04 47.65378 14.55928 38423 ft 484 kts 295°
2026-04-30 19:05 47.75526 14.18784 38420 ft 485 kts 296°
2026-04-30 19:06 47.85555 13.81495 38430 ft 485 kts 296°
2026-04-30 19:06 47.90585 13.62569 38400 ft 484 kts 296°
2026-04-30 19:07 47.94276 13.48579 38391 ft 483 kts 296°
2026-04-30 19:08 47.96680 13.39410 37829 ft 473 kts 296°
2026-04-30 19:08 47.99080 13.30245 36188 ft 477 kts 296°
2026-04-30 19:08 48.00289 13.25613 35276 ft 480 kts 296°
2026-04-30 19:09 48.02725 13.16249 33531 ft 484 kts 297°
2026-04-30 19:09 48.03938 13.11562 32727 ft 483 kts 297°
2026-04-30 19:09 48.05148 13.06876 31960 ft 482 kts 297°
2026-04-30 19:10 48.07537 12.97614 30455 ft 479 kts 297°
2026-04-30 19:10 48.09444 12.88034 28732 ft 483 kts 285°
2026-04-30 19:11 48.09917 12.83056 27830 ft 478 kts 282°
2026-04-30 19:11 48.10813 12.73385 26290 ft 462 kts 283°
2026-04-30 19:11 48.11265 12.68666 25551 ft 454 kts 283°
2026-04-30 19:12 48.11705 12.64025 24826 ft 447 kts 282°
2026-04-30 19:12 48.12158 12.59465 24118 ft 439 kts 284°
2026-04-30 19:12 48.12671 12.55057 23339 ft 431 kts 284°
2026-04-30 19:13 48.13721 12.46345 21728 ft 419 kts 284°
2026-04-30 19:13 48.14710 12.37871 20216 ft 408 kts 284°
2026-04-30 19:13 48.15188 12.33715 19469 ft 403 kts 284°
2026-04-30 19:14 48.15657 12.29604 18766 ft 398 kts 284°
2026-04-30 19:14 48.16119 12.25543 17968 ft 393 kts 283°
2026-04-30 19:14 48.16572 12.21531 17172 ft 388 kts 283°
2026-04-30 19:14 48.17018 12.17572 16404 ft 383 kts 283°
2026-04-30 19:15 48.17458 12.13662 15645 ft 378 kts 283°
2026-04-30 19:15 48.18311 12.06037 14192 ft 369 kts 282°
2026-04-30 19:15 48.18732 12.02275 13393 ft 365 kts 281°
2026-04-30 19:16 48.19148 11.98537 12608 ft 362 kts 281°
2026-04-30 19:16 48.19550 11.94807 11850 ft 362 kts 281°
2026-04-30 19:16 48.20391 11.87414 10369 ft 359 kts 281°
2026-04-30 19:17 48.20802 11.83732 9571 ft 355 kts 280°
2026-04-30 19:17 48.21412 11.76516 8175 ft 342 kts 274°
2026-04-30 19:17 48.21585 11.72996 7546 ft 334 kts 274°
2026-04-30 19:18 48.21880 11.67306 6517 ft 325 kts 274°
2026-04-30 19:18 48.22111 11.62871 5994 ft 309 kts 274°
2026-04-30 19:18 48.22269 11.59745 5750 ft 294 kts 274°
2026-04-30 19:19 48.22416 11.56754 5479 ft 288 kts 274°
2026-04-30 19:19 48.22560 11.53785 5224 ft 284 kts 274°
2026-04-30 19:19 48.22844 11.47842 4757 ft 287 kts 277°
2026-04-30 19:20 48.23474 11.45055 4537 ft 281 kts 305°
2026-04-30 19:20 48.24835 11.43041 4422 ft 269 kts 333°
2026-04-30 19:20 48.28242 11.41676 4166 ft 248 kts 355°
2026-04-30 19:21 48.29923 11.41565 4018 ft 234 kts 19°
2026-04-30 19:21 48.31762 11.44456 4031 ft 182 kts 81°
2026-04-30 19:22 48.32022 11.47934 4030 ft 160 kts 85°
2026-04-30 19:22 48.32386 11.52938 4041 ft 161 kts 86°
2026-04-30 19:23 48.32765 11.57879 3917 ft 151 kts 86°
2026-04-30 19:24 48.32984 11.60778 3531 ft 130 kts 86°
2026-04-30 19:24 48.33083 11.62110 3338 ft 128 kts 86°
2026-04-30 19:24 48.33267 11.64739 2999 ft 128 kts 86°
2026-04-30 19:25 48.33573 11.68742 2405 ft 130 kts 84°
2026-04-30 19:26 48.33785 11.71492 2012 ft 132 kts 83°
2026-04-30 19:26 48.34003 11.74202 1676 ft 127 kts 83°
2026-04-30 19:26 48.34099 11.75513 1509 ft 127 kts 83°
2026-04-30 19:27 48.34249 11.77437 1477 ft 55 kts 83°
2026-04-30 19:27 48.34314 11.78160 1486 ft 22 kts 72°
2026-04-30 19:28 48.34370 11.78333 1485 ft 16 kts 57°
2026-04-30 19:28 48.34471 11.78544 1482 ft 11 kts 52°
2026-04-30 19:29 48.34564 11.78724 1475 ft 11 kts 51°
2026-04-30 19:29 48.34612 11.78760 1478 ft 3 kts 333°
2026-04-30 19:30 48.34579 11.78229 1477 ft 22 kts 266°
2026-04-30 19:30 48.34605 11.78060 1484 ft 8 kts 347°
2026-04-30 19:31 48.34642 11.78051 1477 ft 1 kts 352°
2026-04-30 19:31 48.34666 11.78054 1488 ft 5 kts 24°
2026-04-30 19:31 48.34685 11.78137 1481 ft 7 kts 86°
2026-04-30 19:32 48.34689 11.78229 1487 ft 11 kts 85°
2026-04-30 19:32 48.34698 11.78354 1477 ft 13 kts 83°
2026-04-30 19:32 48.34709 11.78482 1487 ft 12 kts 82°
2026-04-30 19:32 48.34720 11.78604 1481 ft 11 kts 83°
2026-04-30 19:33 48.34727 11.78719 1480 ft 11 kts 85°
2026-04-30 19:33 48.34734 11.78830 1484 ft 10 kts 84°
2026-04-30 19:33 48.34742 11.78935 1484 ft 10 kts 83°
2026-04-30 19:33 48.34751 11.79040 1486 ft 10 kts 82°
2026-04-30 19:34 48.34760 11.79142 1490 ft 10 kts 83°
2026-04-30 19:34 48.34768 11.79244 1477 ft 10 kts 84°
2026-04-30 19:34 48.34778 11.79395 1488 ft 7 kts 83°
2026-04-30 19:35 48.34784 11.79472 1480 ft 8 kts 83°
2026-04-30 19:35 48.34791 11.79557 1484 ft 9 kts 83°
2026-04-30 19:35 48.34797 11.79622 1478 ft 4 kts 82°
2026-04-30 19:35 48.34798 11.79640 1478 ft 1 kts 80°
2026-04-30 19:36 48.34804 11.79667 1483 ft 5 kts 57°
2026-04-30 19:36 48.34832 11.79691 1481 ft 6 kts
2026-04-30 19:36 48.34945 11.79680 1477 ft 7 kts 352°
2026-04-30 19:37 48.34986 11.79672 1487 ft 6 kts 352°
2026-04-30 19:37 48.35026 11.79664 1490 ft 6 kts 353°
2026-04-30 19:37 48.35065 11.79656 1479 ft 6 kts 353°
2026-04-30 19:37 48.35099 11.79649 1487 ft 3 kts 331°
2026-04-30 19:38 48.35109 11.79637 1499 ft 1 kts 307°
2026-04-30 19:38 48.35109 11.79636 1499 ft 0 kts 305°
2026-04-30 19:38 48.35111 11.79632 1491 ft 1 kts 303°
2026-04-30 19:38 48.35115 11.79624 1465 ft 1 kts 317°
2026-04-30 19:39 48.35129 11.79618 1472 ft 3 kts 22°
2026-04-30 19:39 48.35139 11.79651 1474 ft 6 kts 102°
2026-04-30 19:39 48.35125 11.79711 1475 ft 4 kts 111°
2026-04-30 19:39 48.35117 11.79744 1483 ft 4 kts 104°
2026-04-30 19:40 48.35111 11.79812 1480 ft 8 kts 90°
2026-04-30 19:40 48.35115 11.79889 1478 ft 7 kts 84°
2026-04-30 19:40 48.35120 11.79955 1480 ft 6 kts 82°
2026-04-30 19:40 48.35125 11.80008 1480 ft 3 kts 83°
2026-04-30 19:41 48.35126 11.80027 1480 ft 1 kts 83°
2026-04-30 19:41 48.35128 11.80052 1476 ft 4 kts 83°
2026-04-30 19:41 48.35133 11.80106 1487 ft 6 kts 83°
2026-04-30 19:41 48.35141 11.80168 1486 ft 3 kts 42°
2026-04-30 19:42 48.35170 11.80185 1480 ft 6 kts 358°
2026-04-30 19:42 48.35212 11.80180 1482 ft 6 kts 356°
2026-04-30 19:42 48.35246 11.80172 1478 ft 2 kts 322°
2026-04-30 19:42 48.35248 11.80169 1478 ft 0 kts 310°
2026-04-30 19:43 48.35251 11.80161 1465 ft 2 kts 289°
2026-04-30 19:43 48.35252 11.80129 1498 ft 5 kts 263°
2026-04-30 19:43 48.35247 11.80075 1490 ft 4 kts 262°
2026-04-30 19:44 48.35245 11.80046 1490 ft 0 kts 263°